Litchfield, MN

8:56 AM CDT on August 17, 2017 (GMT -0500)
Litchfield Municipal

Weather History for KLJF - June, 2014

Change the Weather History Date:

Thursday, June 12, 2014

  Actual Average Record
Temperature  
Mean Temperature 60 °F -  
Max Temperature 66 °F 80 °F 99 °F (1956)
Min Temperature 55 °F 56 °F 41 °F (1985)
Degree Days  
Heating Degree Days 4    
Growing Degree Days 10 (Base 50)    
Moisture  
Dew Point 50 °F    
Average Humidity 71    
Maximum Humidity 100    
Minimum Humidity 45    
Precipitation  
Precipitation 0.00 in - - ()
Sea Level Pressure  
Sea Level Pressure 29.89 in    
Wind  
Wind Speed 15 mph (NW)    
Max Wind Speed 21 mph    
Max Gust Speed 33 mph    
Visibility 10 miles    
Events      
Averages and records for this station are not official NWS values.
T = Trace of Precipitation, MM = Missing Value Source: NWS Daily Summary

Daily Weather History Graph

Daily Weather History Graph

Search for Another Location

Airport or City:

Trip Planner

Search our weather history database for the weather conditions in past years. The results will help you decide how hot, cold, wet, or windy it might be!

Date:

Astronomy

Jun. 12, 2014 Rise Set
Actual Time 5:30 AM CDT 9:05 PM CDT
Civil Twilight 4:53 AM CDT 9:42 PM CDT
Nautical Twilight 4:03 AM CDT 10:32 PM CDT
Astronomical Twilight 2:58 AM CDT 11:38 PM CDT
Moon 8:35 PM CDT (6/12) 5:16 AM CDT (6/12)
Length of Visible Light 16h 49m
Length of Day
15h 35m
Full, 100% of the Moon is Illuminated
Jun 12
Full
Jun 12
Full
Jun 19
Last Quarter
Jun 27
New
Jul 5
First Quarter

Hourly Weather History & Observations

Time (CDT) Temp. Dew Point Humidity Pressure Visibility Wind Dir Wind Speed Gust Speed Precip Events Conditions
12:13 AM 66.2 °F 64.4 °F 94% 29.68 in 10.0 mi West 12.7 mph 18.4 mph N/A   Mostly Cloudy
12:33 AM 64.4 °F 64.4 °F 100% 29.68 in 10.0 mi West 11.5 mph 20.7 mph N/A   Mostly Cloudy
12:53 AM 64.4 °F 62.6 °F 94% 29.69 in 10.0 mi West 11.5 mph 25.3 mph N/A   Overcast
1:13 AM 62.6 °F 62.6 °F 100% 29.71 in 10.0 mi West 9.2 mph - N/A   Scattered Clouds
1:33 AM 62.6 °F 60.8 °F 94% 29.72 in 10.0 mi WNW 18.4 mph 24.2 mph N/A   Mostly Cloudy
1:53 AM 60.8 °F 57.2 °F 88% 29.73 in 10.0 mi WNW 12.7 mph 27.6 mph N/A   Overcast
2:13 AM 60.8 °F 57.2 °F 88% 29.75 in 10.0 mi WNW 17.3 mph 25.3 mph N/A   Overcast
2:33 AM 60.8 °F 55.4 °F 82% 29.76 in 10.0 mi WNW 13.8 mph 28.8 mph N/A   Overcast
2:52 AM 59.0 °F 55.4 °F 88% 29.76 in 10.0 mi WNW 20.7 mph 26.5 mph N/A   Overcast
3:13 AM 57.2 °F 53.6 °F 88% 29.76 in 10.0 mi NW 17.3 mph 24.2 mph N/A   Overcast
3:33 AM 57.2 °F 53.6 °F 88% 29.76 in 10.0 mi WNW 16.1 mph 21.9 mph N/A   Mostly Cloudy
3:52 AM 57.2 °F 53.6 °F 88% 29.76 in 10.0 mi WNW 16.1 mph 25.3 mph N/A   Scattered Clouds
4:13 AM 57.2 °F 53.6 °F 88% 29.77 in 10.0 mi WNW 17.3 mph 25.3 mph N/A   Clear
4:33 AM 57.2 °F 51.8 °F 82% 29.78 in 10.0 mi WNW 18.4 mph 28.8 mph N/A   Clear
4:52 AM 57.2 °F 51.8 °F 82% 29.79 in 10.0 mi WNW 15.0 mph 24.2 mph N/A   Clear
5:13 AM 55.4 °F 51.8 °F 88% 29.79 in 10.0 mi WNW 11.5 mph 23.0 mph N/A   Clear
5:33 AM 55.4 °F 51.8 °F 88% 29.81 in 10.0 mi WNW 17.3 mph 25.3 mph N/A   Scattered Clouds
5:52 AM 55.4 °F 51.8 °F 88% 29.82 in 10.0 mi WNW 12.7 mph 24.2 mph N/A   Mostly Cloudy
6:13 AM 55.4 °F 51.8 °F 88% 29.83 in 10.0 mi NW 13.8 mph 25.3 mph N/A   Overcast
6:33 AM 55.4 °F 51.8 °F 88% 29.84 in 10.0 mi NW 19.6 mph 26.5 mph N/A   Overcast
6:52 AM 55.4 °F 50.0 °F 82% 29.85 in 10.0 mi WNW 18.4 mph 25.3 mph N/A   Overcast
7:13 AM 55.4 °F 50.0 °F 82% 29.86 in 10.0 mi NW 16.1 mph 24.2 mph N/A   Overcast
7:33 AM 57.2 °F 50.0 °F 77% 29.86 in 10.0 mi WNW 17.3 mph 26.5 mph N/A   Overcast
7:52 AM 55.4 °F 50.0 °F 82% 29.87 in 10.0 mi WNW 18.4 mph 26.5 mph N/A   Overcast
8:13 AM 57.2 °F 48.2 °F 72% 29.87 in 10.0 mi NW 16.1 mph 27.6 mph N/A   Scattered Clouds
8:33 AM 55.4 °F 50.0 °F 82% 29.88 in 10.0 mi WNW 20.7 mph 27.6 mph N/A   Overcast
9:33 AM 57.2 °F 48.2 °F 72% 29.89 in 10.0 mi WNW 20.7 mph 29.9 mph N/A   Mostly Cloudy
9:53 AM 55.4 °F 48.2 °F 77% 29.90 in 10.0 mi WNW 20.7 mph 33.4 mph N/A   Overcast
10:13 AM 57.2 °F 48.2 °F 72% 29.90 in 10.0 mi NW 17.3 mph 32.2 mph N/A   Overcast
10:32 AM 55.4 °F 48.2 °F 77% 29.90 in 10.0 mi WNW 19.6 mph 32.2 mph N/A   Overcast
10:53 AM 55.4 °F 48.2 °F 77% 29.90 in 10.0 mi WNW 20.7 mph 28.8 mph N/A   Overcast
11:12 AM 57.2 °F 48.2 °F 72% 29.91 in 10.0 mi WNW 20.7 mph 32.2 mph N/A   Overcast
11:33 AM 57.2 °F 48.2 °F 72% 29.91 in 10.0 mi NW 18.4 mph 29.9 mph N/A   Overcast
11:53 AM 57.2 °F 48.2 °F 72% 29.92 in 10.0 mi NW 20.7 mph 27.6 mph N/A   Overcast
12:13 PM 57.2 °F 48.2 °F 72% 29.93 in 10.0 mi WNW 19.6 mph 28.8 mph N/A   Overcast
12:33 PM 55.4 °F 46.4 °F 72% 29.95 in 10.0 mi NW 17.3 mph 28.8 mph N/A   Overcast
12:53 PM 57.2 °F 48.2 °F 72% 29.94 in 10.0 mi NW 16.1 mph 27.6 mph N/A   Overcast
1:13 PM 59.0 °F 48.2 °F 67% 29.94 in 10.0 mi NW 18.4 mph 25.3 mph N/A   Overcast
1:32 PM 57.2 °F 48.2 °F 72% 29.94 in 10.0 mi WNW 15.0 mph 27.6 mph N/A   Overcast
1:53 PM 59.0 °F 48.2 °F 67% 29.94 in 10.0 mi WNW 18.4 mph 28.8 mph N/A   Overcast
2:13 PM 57.2 °F 48.2 °F 72% 29.95 in 10.0 mi NW 18.4 mph 24.2 mph N/A   Overcast
2:32 PM 59.0 °F 48.2 °F 67% 29.95 in 10.0 mi NW 16.1 mph 26.5 mph N/A   Overcast
2:53 PM 60.8 °F 48.2 °F 63% 29.95 in 10.0 mi WNW 16.1 mph 25.3 mph N/A   Overcast
3:13 PM 60.8 °F 50.0 °F 68% 29.95 in 10.0 mi NW 15.0 mph 24.2 mph N/A   Overcast
3:32 PM 60.8 °F 48.2 °F 63% 29.94 in 10.0 mi WNW 18.4 mph 28.8 mph N/A   Mostly Cloudy
3:53 PM 62.6 °F 50.0 °F 63% 29.94 in 10.0 mi NW 19.6 mph 26.5 mph N/A   Mostly Cloudy
4:13 PM 62.6 °F 50.0 °F 63% 29.95 in 10.0 mi NNW 19.6 mph 27.6 mph N/A   Mostly Cloudy
4:32 PM 64.4 °F 50.0 °F 59% 29.94 in 10.0 mi NNW 18.4 mph 25.3 mph N/A   Mostly Cloudy
4:53 PM 62.6 °F 50.0 °F 63% 29.95 in 10.0 mi NNW 12.7 mph 24.2 mph N/A   Mostly Cloudy
5:13 PM 64.4 °F 48.2 °F 56% 29.95 in 10.0 mi NW 15.0 mph 26.5 mph N/A   Scattered Clouds
5:32 PM 64.4 °F 48.2 °F 56% 29.95 in 10.0 mi NNW 16.1 mph 20.7 mph N/A   Scattered Clouds
5:53 PM 64.4 °F 46.4 °F 52% 29.95 in 10.0 mi NNW 16.1 mph 23.0 mph N/A   Scattered Clouds
6:13 PM 64.4 °F 44.6 °F 49% 29.95 in 10.0 mi NW 16.1 mph 23.0 mph N/A   Clear
6:32 PM 64.4 °F 44.6 °F 49% 29.96 in 10.0 mi NNW 17.3 mph 23.0 mph N/A   Clear
6:53 PM 64.4 °F 44.6 °F 49% 29.96 in 10.0 mi NNW 20.7 mph 26.5 mph N/A   Clear
7:12 PM 64.4 °F 44.6 °F 49% 29.96 in 10.0 mi NNW 15.0 mph 20.7 mph N/A   Clear
7:33 PM 64.4 °F 44.6 °F 49% 29.96 in 10.0 mi NW 13.8 mph 18.4 mph N/A   Clear
7:52 PM 64.4 °F 42.8 °F 45% 29.97 in 10.0 mi NW 12.7 mph 20.7 mph N/A   Clear
8:12 PM 64.4 °F 42.8 °F 45% 29.97 in 10.0 mi NW 12.7 mph 18.4 mph N/A   Clear
8:33 PM 62.6 °F 42.8 °F 48% 29.98 in 10.0 mi NW 9.2 mph - N/A   Clear
8:52 PM 62.6 °F 42.8 °F 48% 29.98 in 10.0 mi NW 6.9 mph - N/A   Clear
9:12 PM 62.6 °F 42.8 °F 48% 29.99 in 10.0 mi WNW 6.9 mph - N/A   Clear
9:33 PM 60.8 °F 42.8 °F 52% 29.99 in 10.0 mi WNW 5.8 mph - N/A   Clear
9:53 PM 60.8 °F 42.8 °F 52% 30.00 in 10.0 mi NW 6.9 mph - N/A   Scattered Clouds
10:33 PM 57.2 °F 44.6 °F 63% 30.01 in 10.0 mi WNW 6.9 mph - N/A   Clear
10:52 PM 57.2 °F 44.6 °F 63% 30.01 in 10.0 mi West 5.8 mph - N/A   Clear
11:13 PM 55.4 °F 44.6 °F 67% 30.01 in 10.0 mi West 3.5 mph - N/A   Scattered Clouds
11:32 PM 55.4 °F 44.6 °F 67% 30.02 in 10.0 mi West 3.5 mph - N/A   Scattered Clouds
11:53 PM 55.4 °F 44.6 °F 67% 30.01 in 10.0 mi West 4.6 mph - N/A   Clear